period_start,C,m1,H,J0,J1,J2,J3,J4,J5,JA,JB,JC,JD,JJ,JK,JN,#
2016-03-11 00:04:50,0.02,4.85,0.00,16.77,21.13,25.33,14.94,50.02,1018.08,2053.99,2006.94,2112.80,2374.98,600.25,610.05,51.73,0000 0000 0000 0000 000000
2016-03-11 00:09:51,0.07,4.86,0.00,16.77,21.12,25.38,14.99,49.99,1018.07,2053.99,2006.16,2112.09,2374.53,599.91,609.63,51.78,0000 0000 0000 0000 000000
2016-03-11 00:14:52,0.01,4.86,0.00,16.77,21.12,25.38,15.00,50.06,1018.07,2053.99,2005.88,2111.99,2374.01,600.08,609.79,51.83,0000 0000 0000 0000 000000
2016-03-11 00:19:53,0.07,4.86,0.00,16.79,21.12,25.36,14.98,50.14,1018.07,2053.99,2005.08,2111.49,2373.79,600.04,609.63,51.88,0000 0000 0000 0000 000000
2016-03-11 00:24:54,0.04,4.86,0.00,16.81,21.11,25.33,14.95,50.09,1018.08,2053.99,2004.76,2111.01,2373.08,599.85,609.46,51.93,0000 0000 0000 0000 000000
2016-03-11 00:29:55,0.02,4.86,0.00,16.82,21.10,25.37,15.04,50.15,1018.08,2053.99,2004.04,2111.00,2372.99,599.84,609.46,51.98,0000 0000 0000 0000 000000
2016-03-11 00:34:56,0.03,4.87,0.00,16.82,21.10,25.33,14.99,50.09,1018.08,2054.00,2003.95,2110.89,2372.54,599.53,609.13,52.03,0000 0000 0000 0000 000000
2016-03-11 00:39:58,0.07,4.87,0.00,16.83,21.10,25.34,14.92,50.02,1018.08,2054.00,2003.30,2110.16,2372.02,599.67,609.28,52.08,0000 0000 0000 0000 000000
2016-03-11 00:44:59,0.01,4.87,0.00,16.83,21.12,25.37,15.02,50.21,1018.08,2054.00,2002.98,2110.00,2371.75,599.96,609.62,52.13,0000 0000 0000 0000 000000
2016-03-11 00:50:00,0.07,4.87,0.00,16.85,21.12,25.42,14.94,50.13,1018.08,2054.00,2002.29,2109.67,2371.03,599.87,609.21,52.19,0000 0000 0000 0000 000000
2016-03-11 00:55:01,0.02,4.88,0.00,16.86,21.12,25.40,15.00,50.32,1018.08,2054.00,2002.00,2109.05,2370.98,600.29,609.87,52.24,0000 0000 0000 0000 000000
2016-03-11 01:00:02,0.03,4.88,0.00,16.86,21.13,25.46,15.06,50.23,1018.08,2054.00,2001.80,2109.00,2370.26,600.04,609.67,52.29,0000 0000 0000 0000 000000
2016-03-11 01:05:04,0.05,4.88,0.00,16.87,21.14,25.44,14.97,50.04,1018.08,2054.00,2001.08,2108.64,2369.99,600.01,609.58,52.34,0000 0000 0000 0000 000000
2016-03-11 01:10:05,0.06,4.88,0.00,16.88,21.14,25.49,14.98,50.19,1018.08,2054.00,2000.68,2108.03,2369.46,600.12,609.55,52.39,0000 0000 0000 0000 000000
2016-03-11 01:15:06,0.02,4.89,0.00,16.91,21.14,25.46,15.00,50.15,1018.08,2054.00,2000.03,2107.92,2369.01,599.70,609.12,52.44,0000 0000 0000 0000 000000
2016-03-11 01:20:07,0.07,4.89,0.00,16.94,21.15,25.50,15.00,50.02,1018.08,2054.00,1999.71,2107.15,2368.58,600.00,609.36,52.49,0000 0000 0000 0000 000000
2016-03-11 01:25:08,0.02,4.89,0.00,16.95,21.16,25.49,14.90,50.18,1018.08,2054.00,1999.02,2107.00,2368.02,599.88,609.33,52.54,0000 0000 0000 0000 000000
2016-03-11 01:30:10,0.08,4.89,0.00,16.96,21.17,25.48,15.00,50.13,1018.08,2053.99,1998.44,2106.48,2367.76,599.88,609.26,52.59,0000 0000 0000 0000 000000
2016-03-11 01:35:11,0.03,4.90,0.00,16.98,21.17,25.49,15.04,50.18,1018.10,2053.98,1997.94,2106.01,2367.05,600.42,609.85,52.64,0000 0000 0000 0000 000000
2016-03-11 01:40:12,0.05,4.90,0.00,16.99,21.17,25.49,14.89,50.14,1018.10,2053.99,1997.12,2105.74,2366.97,599.93,609.21,52.69,0000 0000 0000 0000 000000
2016-03-11 01:45:13,0.06,4.90,0.00,17.00,21.18,25.49,14.97,50.13,1018.09,2053.99,1996.80,2105.05,2366.20,600.21,609.46,52.74,0000 0000 0000 0000 000000
2016-03-11 01:50:14,0.03,4.90,0.00,17.03,21.19,25.53,14.99,50.12,1018.08,2053.97,1996.05,2104.81,2365.91,600.54,609.67,52.79,0000 0000 0000 0000 000000
2016-03-11 01:55:15,0.08,4.91,0.00,17.04,21.20,25.53,14.97,50.08,1018.08,2053.98,1995.46,2104.07,2365.14,599.69,608.98,52.84,0000 0000 0000 0000 000000
2016-03-11 02:00:16,0.01,4.91,0.00,17.05,21.21,25.58,14.93,50.16,1018.08,2053.98,1994.99,2103.95,2364.95,600.04,609.09,52.89,0000 0000 0000 0000 000000
2016-03-11 02:05:17,0.09,4.91,0.00,17.07,21.22,25.57,15.00,50.22,1018.08,2053.98,1994.30,2103.24,2364.22,600.45,609.50,52.94,0000 0000 0000 0000 000000
2016-03-11 02:10:18,0.00,4.92,0.00,17.08,21.23,25.56,15.01,50.17,1018.08,2053.96,1993.99,2103.01,2364.00,600.24,609.40,52.99,0000 0000 0000 0000 000000
2016-03-11 02:15:20,0.07,4.92,0.00,17.10,21.24,25.61,14.97,50.21,1018.08,2053.97,1993.28,2102.73,2363.57,599.85,608.87,53.04,0000 0000 0000 0000 000000
2016-03-11 02:20:21,0.03,4.92,0.00,17.12,21.25,25.61,14.93,50.15,1018.09,2053.95,1992.97,2102.04,2363.02,599.97,608.99,53.09,0000 0000 0000 0000 000000
2016-03-11 02:25:22,0.02,4.92,0.00,17.14,21.27,25.66,14.95,50.27,1018.09,2053.84,1992.31,2102.00,2362.82,599.78,608.79,53.15,0000 0000 0000 0000 000000
2016-03-11 02:30:24,0.03,4.92,0.00,17.17,21.27,25.65,14.94,50.28,1018.10,2053.73,1992.00,2101.52,2362.07,600.23,609.21,53.20,0000 0000 0000 0000 000000
2016-03-11 02:35:25,0.03,4.93,0.00,17.19,21.28,25.63,14.99,50.13,1018.11,2053.64,1991.62,2101.02,2361.97,599.88,608.73,53.25,0000 0000 0000 0000 000000
2016-03-11 02:40:27,0.02,4.93,0.00,17.22,21.29,25.61,14.93,50.03,1018.13,2053.39,1991.03,2100.97,2361.34,599.77,608.59,53.30,0000 0000 0000 0000 000000
2016-03-11 02:45:28,0.03,4.93,0.00,17.24,21.30,25.62,14.97,50.21,1018.16,2053.23,1990.75,2100.45,2361.01,600.34,609.06,53.35,0000 0000 0000 0000 000000
2016-03-11 02:50:29,0.02,4.93,0.00,17.28,21.32,25.65,14.91,50.07,1018.14,2053.18,1990.06,2100.01,2360.85,600.05,608.62,53.40,0000 0000 0000 0000 000000
2016-03-11 02:55:30,0.03,4.93,0.00,17.29,21.32,25.66,14.94,50.22,1018.11,2053.14,1989.82,2099.97,2360.10,600.17,608.89,53.45,0000 0000 0000 0000 000000
2016-03-11 03:00:32,0.06,4.93,0.00,17.32,21.33,25.66,14.91,50.05,1018.12,2053.09,1989.05,2099.24,2359.97,599.88,608.47,53.50,0000 0000 0000 0000 000000
2016-03-11 03:05:33,0.03,4.94,0.00,17.34,21.35,25.68,14.93,50.07,1018.14,2053.08,1988.80,2099.00,2359.32,600.13,608.70,53.55,0000 0000 0000 0000 000000
2016-03-11 03:10:34,0.04,4.94,0.00,17.37,21.37,25.69,14.96,50.11,1018.12,2053.03,1988.07,2098.71,2359.01,599.94,608.37,53.60,0000 0000 0000 0000 000000
2016-03-11 03:15:36,0.05,4.94,0.00,17.40,21.38,25.71,14.92,50.08,1018.22,2053.02,1987.81,2098.03,2358.50,599.80,608.18,53.65,0000 0000 0000 0000 000000
2016-03-11 03:20:37,0.03,4.94,0.00,17.43,21.40,25.76,14.88,50.08,1018.24,2053.01,1987.04,2097.95,2358.01,599.78,608.23,53.70,0000 0000 0000 0000 000000
2016-03-11 03:25:38,0.06,4.95,0.00,17.45,21.42,25.77,14.77,50.08,1018.30,2053.01,1986.81,2097.22,2357.71,599.51,608.10,53.75,0000 0000 0000 0000 000000
2016-03-11 03:30:40,0.04,4.95,0.00,17.47,21.44,25.81,14.92,50.12,1018.46,2053.00,1986.04,2097.00,2357.04,600.40,608.83,53.80,0000 0000 0000 0000 000000
2016-03-11 03:35:41,0.05,4.95,0.00,17.49,21.47,25.80,14.89,50.03,1018.52,2053.00,1985.74,2096.64,2356.75,600.15,608.56,53.85,0000 0000 0000 0000 000000
2016-03-11 03:40:43,0.05,4.95,0.00,17.52,21.48,25.83,14.96,50.22,1018.55,2053.00,1985.03,2096.04,2356.04,599.93,608.33,53.90,0000 0000 0000 0000 000000
2016-03-11 03:45:44,0.03,4.95,0.00,17.54,21.51,25.85,14.97,50.23,1018.57,2052.99,1984.65,2095.87,2355.83,599.97,608.32,53.95,0000 0000 0000 0000 000000
2016-03-11 03:50:45,0.07,4.96,0.00,17.55,21.53,25.91,14.98,50.17,1018.57,2052.97,1984.02,2095.10,2355.07,600.52,609.06,54.01,0000 0000 0000 0000 000000
2016-03-11 03:55:46,0.02,4.96,0.00,17.58,21.55,25.89,14.86,50.18,1018.57,2052.97,1983.71,2094.99,2354.89,600.09,608.40,54.06,0000 0000 0000 0000 000000
2016-03-11 04:00:48,0.06,4.96,0.00,17.59,21.58,25.94,14.98,50.28,1018.57,2052.82,1983.03,2094.31,2354.11,600.04,608.33,54.11,0000 0000 0000 0000 000000
2016-03-11 04:05:49,0.01,4.96,0.00,17.62,21.60,25.98,14.93,50.25,1018.57,2052.69,1982.74,2094.02,2353.96,600.00,608.23,54.16,0000 0000 0000 0000 000000
2016-03-11 04:10:50,0.01,4.97,0.00,17.65,21.63,26.00,14.81,50.19,1018.57,2052.36,1982.03,2093.71,2353.31,599.73,608.06,54.21,0000 0000 0000 0000 000000
2016-03-11 04:15:52,0.03,4.97,0.00,17.68,21.65,25.98,14.87,50.20,1018.57,2052.12,1981.73,2093.03,2352.97,599.78,607.88,54.26,0000 0000 0000 0000 000000
2016-03-11 04:20:53,0.04,4.97,0.00,17.69,21.68,26.02,14.93,50.27,1018.57,2052.02,1981.03,2092.84,2352.23,600.05,608.19,54.31,0000 0000 0000 0000 000000
2016-03-11 04:25:54,0.07,4.97,0.00,17.73,21.70,26.04,14.89,50.25,1018.57,2052.01,1980.50,2092.09,2351.95,600.27,608.24,54.36,0000 0000 0000 0000 000000
2016-03-11 04:30:55,0.03,4.97,0.00,17.75,21.73,26.09,14.92,50.29,1018.57,2052.00,1979.99,2091.95,2351.19,600.13,608.12,54.41,0000 0000 0000 0000 000000
2016-03-11 04:35:56,0.08,4.98,0.00,17.78,21.76,26.13,14.94,50.10,1018.57,2052.00,1979.34,2091.22,2350.92,600.01,607.86,54.46,0000 0000 0000 0000 000000
2016-03-11 04:40:58,0.04,4.98,0.00,17.79,21.78,26.14,14.92,50.26,1018.58,2051.99,1978.77,2090.97,2350.16,599.89,607.74,54.51,0000 0000 0000 0000 000000
2016-03-11 04:45:59,0.08,4.98,0.00,17.81,21.80,26.18,14.85,50.13,1018.58,2051.97,1978.05,2090.25,2349.74,600.02,607.76,54.56,0000 0000 0000 0000 000000
2016-03-11 04:51:01,0.04,4.99,0.00,17.83,21.83,26.20,14.82,50.31,1018.60,2051.97,1977.53,2089.97,2349.03,600.09,607.95,54.61,0000 0000 0000 0000 000000
2016-03-11 04:56:02,0.05,4.99,0.00,17.86,21.86,26.24,14.92,50.22,1018.60,2051.79,1977.00,2089.27,2348.53,600.07,607.79,54.66,0000 0000 0000 0000 000000
2016-03-11 05:01:03,-0.02,4.99,0.00,17.89,21.89,26.26,14.86,50.31,1018.60,2051.28,1976.27,2088.95,2347.98,599.72,607.42,54.71,0000 0000 0000 0000 000000
2016-03-11 05:06:04,0.06,4.99,0.00,17.92,21.92,26.28,14.96,50.27,1018.59,2051.05,1975.80,2088.16,2347.20,599.82,607.44,54.76,0000 0000 0000 0000 000000
2016-03-11 05:11:05,0.04,4.99,0.00,17.94,21.95,26.30,14.95,50.28,1018.64,2051.01,1975.01,2087.89,2346.83,600.02,607.64,54.81,0000 0000 0000 0000 000000
2016-03-11 05:16:07,0.09,5.00,0.00,17.98,21.98,26.36,14.89,50.28,1018.61,2051.00,1974.19,2087.10,2346.06,599.93,607.44,54.86,0000 0000 0000 0000 000000
2016-03-11 05:21:08,0.04,5.00,0.00,18.00,22.01,26.39,14.91,50.27,1018.61,2051.00,1973.78,2086.90,2345.71,599.88,607.47,54.91,0000 0000 0000 0000 000000
2016-03-11 05:26:09,0.07,5.00,0.00,18.02,22.03,26.40,14.96,50.30,1018.62,2051.00,1973.02,2086.11,2345.03,600.04,607.47,54.96,0000 0000 0000 0000 000000
2016-03-11 05:31:11,0.04,5.01,0.00,18.04,22.06,26.40,14.90,50.35,1018.66,2050.98,1972.52,2085.96,2344.61,600.23,607.68,55.02,0000 0000 0000 0000 000000
2016-03-11 05:36:12,0.05,5.01,0.00,18.08,22.09,26.45,14.96,50.33,1018.71,2050.97,1972.01,2085.33,2344.02,599.85,607.20,55.07,0000 0000 0000 0000 000000
2016-03-11 05:41:13,0.03,5.01,0.00,18.11,22.11,26.46,14.91,50.14,1018.90,2050.95,1971.51,2085.01,2343.74,599.69,607.01,55.12,0000 0000 0000 0000 000000
2016-03-11 05:46:14,-0.01,5.01,0.00,18.12,22.13,26.51,14.87,50.24,1018.98,2050.60,1970.99,2084.72,2343.05,600.09,607.61,55.17,0000 0000 0000 0000 000000
2016-03-11 05:51:16,0.03,5.01,0.00,18.13,22.16,26.54,14.93,50.17,1019.00,2050.09,1970.21,2084.03,2342.66,599.88,607.38,55.22,0000 0000 0000 0000 000000
2016-03-11 05:56:17,0.07,5.01,0.00,18.15,22.17,26.54,14.92,50.24,1019.04,2050.02,1969.54,2083.58,2342.01,600.19,607.52,55.27,0000 0000 0000 0000 000000
2016-03-11 06:01:18,0.08,5.02,0.00,18.18,22.19,26.55,14.81,50.14,1019.05,2050.04,1968.57,2082.93,2341.21,599.56,606.84,55.32,0000 0000 0000 0000 000000
2016-03-11 06:06:19,0.11,5.02,0.00,18.19,22.20,26.54,14.90,50.11,1019.06,2050.01,1967.43,2082.03,2340.26,600.08,607.46,55.37,0000 0000 0000 0000 000000
2016-03-11 06:11:21,0.18,5.03,0.00,18.22,22.22,26.56,14.86,50.16,1019.06,2050.00,1965.67,2080.82,2338.96,599.56,606.88,55.42,0000 0000 0000 0000 000000
2016-03-11 06:16:22,0.30,5.05,0.00,18.23,22.23,26.56,14.94,50.17,1019.08,2050.00,1962.95,2078.76,2336.67,600.26,607.49,55.47,0000 0000 0000 0000 000000
2016-03-11 06:21:23,0.38,5.06,0.00,18.24,22.24,26.57,14.89,50.06,1019.07,2050.00,1959.10,2075.86,2333.47,600.05,607.23,55.52,0000 0000 0000 0000 000000
2016-03-11 06:26:24,0.56,5.09,0.00,18.25,22.25,26.61,15.00,50.10,1019.10,2049.99,1953.72,2071.84,2329.06,600.31,607.42,55.57,0000 0000 0000 0000 000000
2016-03-11 06:31:26,0.57,5.12,0.00,18.26,22.27,26.58,14.94,50.04,1019.11,2049.98,1947.34,2067.34,2324.16,600.09,607.30,55.62,0000 0000 0000 0000 000000
2016-03-11 06:36:27,0.34,5.14,0.00,18.29,22.27,26.59,14.80,50.02,1019.10,2049.98,1943.27,2064.59,2321.14,599.57,606.84,55.67,0000 0000 0000 0000 000000
2016-03-11 06:41:29,0.25,5.16,0.00,18.30,22.27,26.61,14.94,50.15,1019.09,2049.96,1940.17,2062.52,2318.82,599.94,606.96,55.72,0000 0000 0000 0000 000000
2016-03-11 06:46:30,0.10,5.16,0.00,18.30,22.27,26.60,14.86,49.92,1019.07,2049.96,1938.81,2061.54,2317.87,600.16,607.29,55.77,0000 0000 0000 0000 000000
2016-03-11 06:51:31,0.06,5.17,0.00,18.31,22.27,26.58,14.94,49.96,1019.08,2049.97,1938.00,2061.01,2317.06,600.09,607.26,55.82,0000 0000 0000 0000 000000
2016-03-11 06:56:33,0.09,5.17,0.00,18.32,22.27,26.60,14.84,49.95,1019.09,2049.92,1937.16,2060.37,2316.46,599.90,607.02,55.87,0000 0000 0000 0000 000000
2016-03-11 07:01:34,0.05,5.18,0.00,18.32,22.27,26.60,14.94,49.85,1019.07,2049.94,1936.22,2059.92,2315.87,599.90,606.86,55.93,0000 0000 0000 0000 000000
2016-03-11 07:06:35,0.09,5.18,0.00,18.33,22.26,26.58,14.84,49.77,1019.08,2049.92,1935.62,2059.15,2315.08,599.95,607.08,55.98,0000 0000 0000 0000 000000
2016-03-11 07:11:37,0.02,5.18,0.00,18.34,22.25,26.59,14.82,49.72,1019.13,2049.96,1935.00,2058.99,2314.93,599.88,606.95,56.03,0000 0000 0000 0000 000000
2016-03-11 07:16:38,0.09,5.18,0.00,18.34,22.24,26.58,14.89,49.67,1019.30,2049.96,1934.23,2058.64,2314.16,600.09,607.37,56.08,0000 0000 0000 0000 000000
2016-03-11 07:21:40,0.03,5.19,0.00,18.34,22.24,26.58,15.04,49.67,1019.37,2049.97,1933.77,2058.02,2313.98,600.16,607.35,56.13,0000 0000 0000 0000 000000
2016-03-11 07:26:41,0.05,5.19,0.00,18.32,22.22,26.57,14.84,49.73,1019.42,2049.98,1933.03,2057.89,2313.34,599.93,607.14,56.18,0000 0000 0000 0000 000000
2016-03-11 07:31:42,0.07,5.19,0.00,18.33,22.22,26.57,14.82,49.66,1019.51,2049.98,1932.32,2057.15,2312.99,599.82,607.15,56.23,0000 0000 0000 0000 000000
2016-03-11 07:36:43,0.03,5.20,0.00,18.33,22.21,26.55,14.89,49.61,1019.54,2049.97,1931.91,2056.99,2312.32,600.24,607.58,56.28,0000 0000 0000 0000 000000
2016-03-11 07:41:45,0.08,5.20,0.00,18.32,22.19,26.55,14.80,49.65,1019.55,2049.98,1931.09,2056.40,2311.99,599.82,607.16,56.33,0000 0000 0000 0000 000000
2016-03-11 07:46:46,0.06,5.20,0.00,18.30,22.19,26.53,14.96,49.72,1019.55,2049.98,1930.54,2056.00,2311.38,600.08,607.40,56.38,0000 0000 0000 0000 000000
2016-03-11 07:51:47,0.07,5.21,0.00,18.29,22.18,26.48,14.92,49.70,1019.55,2049.99,1929.79,2055.53,2310.82,599.93,607.38,56.43,0000 0000 0000 0000 000000
2016-03-11 07:56:48,0.22,5.21,0.00,18.28,22.17,26.52,14.88,49.71,1019.56,2049.99,1927.78,2054.19,2309.31,600.08,607.59,56.48,0000 0000 0000 0000 000000
2016-03-11 08:01:50,0.26,5.23,0.00,18.28,22.17,26.49,14.86,49.59,1019.68,2049.99,1924.57,2052.18,2306.97,599.69,607.19,56.53,0000 0000 0000 0000 000000
2016-03-11 08:06:51,0.06,5.24,0.00,18.26,22.15,26.49,14.91,49.49,1019.89,2049.99,1923.92,2051.40,2306.07,599.70,607.46,56.58,0000 0000 0000 0000 000000
2016-03-11 08:11:53,0.32,5.25,0.00,18.25,22.14,26.51,14.96,49.51,1019.96,2049.99,1920.93,2049.67,2304.24,600.36,608.07,56.63,0000 0000 0000 0000 000000
2016-03-11 08:16:54,0.10,5.26,0.00,18.24,22.14,26.48,14.93,49.41,1020.00,2049.99,1919.05,2048.48,2303.02,600.16,607.94,56.68,0000 0000 0000 0000 000000
2016-03-11 08:21:55,0.04,5.26,0.00,18.22,22.14,26.46,14.95,49.48,1020.01,2049.99,1918.66,2048.03,2302.81,599.99,607.89,56.73,0000 0000 0000 0000 000000
2016-03-11 08:26:56,0.11,5.26,0.00,18.21,22.14,26.45,14.87,49.55,1019.98,2049.99,1917.67,2047.29,2301.89,599.86,607.71,56.78,0000 0000 0000 0000 000000
2016-03-11 08:31:57,0.08,5.27,0.00,18.19,22.13,26.45,14.96,49.50,1019.97,2049.99,1916.60,2046.85,2300.90,599.83,607.82,56.84,0000 0000 0000 0000 000000
2016-03-11 08:36:59,0.17,5.28,0.00,18.17,22.12,26.46,14.85,49.35,1020.02,2049.99,1915.15,2045.75,2299.69,600.01,607.92,56.89,0000 0000 0000 0000 000000
2016-03-11 08:42:00,0.33,5.29,0.00,18.15,22.12,26.47,14.92,49.45,1020.03,2049.99,1912.35,2043.52,2297.24,599.83,607.76,56.94,0000 0000 0000 0000 000000
2016-03-11 08:47:01,0.33,5.31,0.00,18.13,22.11,26.43,14.88,49.37,1020.03,2049.99,1909.19,2040.84,2294.29,599.85,607.94,56.99,0000 0000 0000 0000 000000
2016-03-11 08:52:03,0.17,5.32,0.00,18.12,22.09,26.40,14.85,49.27,1020.03,2049.99,1907.02,2039.15,2292.39,599.83,607.95,57.04,0000 0000 0000 0000 000000
2016-03-11 08:57:04,0.08,5.32,0.00,18.09,22.09,26.37,14.88,49.37,1020.03,2049.99,1906.04,2038.37,2291.86,600.20,608.21,57.09,0000 0000 0000 0000 000000
2016-03-11 09:02:05,0.06,5.33,0.00,18.08,22.08,26.39,14.96,49.52,1020.04,2050.01,1905.33,2037.99,2291.06,600.10,608.23,57.14,0000 0000 0000 0000 000000
2016-03-11 09:07:06,0.12,5.33,0.00,18.05,22.07,26.36,14.96,49.42,1020.05,2050.01,1904.26,2037.29,2290.39,600.10,608.31,57.19,0000 0000 0000 0000 000000
2016-03-11 09:12:08,0.24,5.34,0.00,18.03,22.05,26.33,14.91,49.42,1020.06,2050.01,1901.82,2035.63,2288.57,599.95,608.29,57.24,0000 0000 0000 0000 000000
2016-03-11 09:17:09,0.23,5.35,0.00,18.02,22.04,26.31,14.88,49.38,1020.10,2050.01,1899.53,2033.93,2286.71,599.91,608.13,57.29,0000 0000 0000 0000 000000
2016-03-11 09:22:10,0.19,5.37,0.00,18.00,22.03,26.31,14.87,49.25,1020.12,2050.04,1897.42,2032.38,2284.99,600.18,608.54,57.34,0000 0000 0000 0000 000000
2016-03-11 09:27:11,0.07,5.37,0.00,17.98,22.02,26.28,14.96,49.36,1020.26,2050.04,1896.30,2031.98,2284.08,600.19,608.67,57.39,0000 0000 0000 0000 000000
2016-03-11 09:32:13,0.04,5.37,0.00,17.96,22.00,26.30,14.86,49.57,1020.44,2050.02,1895.97,2031.34,2283.94,599.79,608.43,57.44,0000 0000 0000 0000 000000
2016-03-11 09:37:14,0.07,5.38,0.00,17.95,21.99,26.25,14.85,49.34,1020.51,2050.07,1895.26,2031.01,2283.28,600.12,608.84,57.49,0000 0000 0000 0000 000000
2016-03-11 09:42:15,0.01,5.38,0.00,17.92,21.97,26.27,15.04,49.60,1020.52,2050.14,1894.97,2030.97,2283.00,600.40,609.05,57.54,0000 0000 0000 0000 000000
2016-03-11 09:47:16,0.10,5.38,0.00,17.90,21.96,26.29,14.88,49.49,1020.52,2050.39,1894.40,2030.68,2282.94,599.94,608.75,57.59,0000 0000 0000 0000 000000
2016-03-11 09:52:17,0.08,5.39,0.00,17.86,21.94,26.22,14.93,49.43,1020.52,2050.68,1893.98,2030.08,2282.26,599.87,608.68,57.64,0000 0000 0000 0000 000000
2016-03-11 09:57:19,0.05,5.39,0.00,17.84,21.92,26.20,14.98,49.68,1020.52,2050.77,1893.20,2029.98,2281.99,600.07,608.91,57.69,0000 0000 0000 0000 000000
2016-03-11 10:02:20,0.06,5.39,0.00,17.79,21.90,26.18,14.92,49.28,1020.52,2050.86,1892.98,2029.59,2281.64,600.25,609.12,57.75,0000 0000 0000 0000 000000
2016-03-11 10:07:21,0.08,5.40,0.00,17.77,21.88,26.14,14.91,49.50,1020.52,2050.97,1892.30,2029.08,2281.05,599.83,608.93,57.80,0000 0000 0000 0000 000000
2016-03-11 10:12:22,0.03,5.40,0.00,17.74,21.86,26.10,14.98,49.43,1020.52,2050.96,1891.69,2028.97,2280.85,600.12,609.39,57.85,0000 0000 0000 0000 000000
2016-03-11 10:17:24,0.10,5.40,0.00,17.70,21.83,26.08,15.00,49.48,1020.52,2050.98,1890.79,2028.21,2280.09,599.86,609.03,57.90,0000 0000 0000 0000 000000
2016-03-11 10:22:25,0.08,5.41,0.00,17.67,21.81,26.00,14.97,49.47,1020.52,2050.99,1889.90,2027.73,2279.54,600.03,609.31,57.95,0000 0000 0000 0000 000000
2016-03-11 10:27:27,0.12,5.41,0.00,17.64,21.78,26.00,15.05,49.45,1020.52,2050.99,1888.89,2026.79,2278.51,600.03,609.39,58.00,0000 0000 0000 0000 000000
2016-03-11 10:32:28,0.08,5.42,0.00,17.61,21.76,25.93,14.94,49.53,1020.53,2050.99,1887.96,2026.03,2277.64,600.01,609.48,58.05,0000 0000 0000 0000 000000
2016-03-11 10:37:29,0.07,5.42,0.00,17.57,21.74,25.91,14.98,49.58,1020.53,2051.00,1887.11,2025.75,2277.02,600.25,609.76,58.10,0000 0000 0000 0000 000000
2016-03-11 10:42:31,0.03,5.43,0.00,17.54,21.71,25.86,15.06,49.55,1020.53,2051.06,1886.94,2025.10,2276.97,599.83,609.48,58.15,0000 0000 0000 0000 000000
2016-03-11 10:47:32,0.06,5.43,0.00,17.52,21.69,25.83,14.93,49.51,1020.54,2051.09,1886.19,2025.00,2276.46,599.86,609.49,58.20,0000 0000 0000 0000 000000
2016-03-11 10:52:33,0.03,5.43,0.00,17.48,21.66,25.83,14.93,49.48,1020.55,2051.23,1885.92,2024.97,2276.01,599.74,609.35,58.25,0000 0000 0000 0000 000000
2016-03-11 10:57:34,0.14,5.44,0.00,17.43,21.63,25.76,14.95,49.66,1020.58,2051.73,1885.12,2024.42,2275.88,600.00,609.88,58.30,0000 0000 0000 0000 000000
2016-03-11 11:02:36,0.04,5.44,0.00,17.40,21.61,25.74,14.90,49.49,1020.59,2051.87,1884.99,2024.01,2275.12,599.83,609.72,58.35,0000 0000 0000 0000 000000
2016-03-11 11:07:37,0.11,5.44,0.00,17.36,21.58,25.72,15.07,49.66,1020.67,2051.97,1883.95,2023.66,2274.72,600.35,610.43,58.40,0000 0000 0000 0000 000000
2016-03-11 11:12:39,0.08,5.45,0.00,17.33,21.56,25.68,14.89,49.41,1020.70,2051.99,1882.85,2022.83,2273.87,599.94,609.94,58.45,0000 0000 0000 0000 000000
2016-03-11 11:17:40,0.08,5.46,0.00,17.30,21.53,25.68,14.94,49.48,1020.75,2051.99,1882.03,2022.05,2273.07,599.93,610.14,58.50,0000 0000 0000 0000 000000
2016-03-11 11:22:41,0.06,5.46,0.00,17.27,21.50,25.66,15.00,49.67,1020.89,2051.99,1881.29,2021.82,2272.73,600.42,610.78,58.55,0000 0000 0000 0000 000000
2016-03-11 11:27:42,0.05,5.46,0.00,17.25,21.47,25.61,14.89,49.67,1020.97,2052.00,1880.95,2021.14,2272.06,599.88,610.30,58.61,0000 0000 0000 0000 000000
2016-03-11 11:32:44,0.20,5.47,0.00,17.21,21.44,25.61,14.89,49.46,1021.01,2052.05,1879.33,2020.28,2271.07,599.73,610.32,58.66,0000 0000 0000 0000 000000
2016-03-11 11:37:45,0.18,5.48,0.00,17.18,21.41,25.56,14.96,49.73,1021.01,2052.13,1877.20,2018.81,2269.47,600.02,610.64,58.71,0000 0000 0000 0000 000000
2016-03-11 11:42:47,0.24,5.49,0.00,17.14,21.39,25.56,14.98,49.79,1021.01,2052.42,1875.35,2017.49,2267.87,599.87,610.61,58.76,0000 0000 0000 0000 000000
2016-03-11 11:47:48,0.65,5.51,0.00,17.11,21.37,25.53,15.01,49.77,1021.01,2052.85,1870.74,2013.92,2263.94,600.05,610.87,58.81,0000 0000 0000 0000 000000
2016-03-11 11:52:49,0.87,5.56,0.00,17.09,21.34,25.53,15.04,49.77,1021.03,2052.95,1862.43,2007.56,2256.95,600.13,610.97,58.86,0000 0000 0000 0000 000000
2016-03-11 11:57:50,0.84,5.60,0.00,17.08,21.33,25.52,15.01,49.86,1021.03,2052.97,1854.49,2001.48,2250.19,600.22,611.03,58.91,0000 0000 0000 0000 000000
2016-03-11 12:02:51,0.83,5.64,0.00,17.03,21.31,25.48,15.05,49.72,1021.08,2052.98,1846.73,1995.55,2243.58,599.97,610.85,58.96,0000 0000 0000 0000 000000
2016-03-11 12:07:53,0.81,5.68,0.00,17.01,21.29,25.49,15.00,49.71,1021.13,2052.99,1839.04,1989.72,2237.25,600.18,611.19,59.01,0000 0000 0000 0000 000000
2016-03-11 12:12:54,0.76,5.72,0.00,16.99,21.27,25.48,14.99,49.67,1021.17,2052.99,1831.69,1984.27,2231.17,600.04,611.15,59.06,0000 0000 0000 0000 000000
2016-03-11 12:17:55,0.42,5.75,0.00,16.95,21.24,25.49,15.06,49.78,1021.22,2052.99,1826.98,1980.92,2227.27,599.96,611.20,59.11,0000 0000 0000 0000 000000
2016-03-11 12:22:57,0.28,5.77,0.00,16.91,21.23,25.44,15.02,49.80,1021.39,2052.99,1824.13,1978.80,2224.99,599.84,611.24,59.16,0000 0000 0000 0000 000000
2016-03-11 12:27:58,0.31,5.78,0.30,16.89,21.21,25.42,15.03,49.67,1021.32,2052.99,1821.23,1976.71,2222.70,599.94,611.43,59.21,0000 0000 0000 0000 000000
2016-03-11 12:32:59,0.41,5.80,1.00,16.87,21.19,25.41,15.04,49.84,1021.19,2053.02,1817.56,1974.04,2219.76,600.01,611.40,59.26,0000 0000 0000 0000 000000
2016-03-11 12:38:00,0.41,5.82,1.00,16.86,21.17,25.38,14.93,49.89,1021.15,2053.04,1813.74,1971.15,2216.62,599.86,611.20,59.31,0000 0000 0000 0000 000000
2016-03-11 12:43:02,0.30,5.84,1.00,16.84,21.14,25.34,15.02,50.02,1021.30,2053.03,1810.64,1968.82,2214.05,600.15,611.67,59.36,0000 0000 0000 0000 000000
2016-03-11 12:48:03,0.21,5.85,1.00,16.80,21.13,25.35,14.94,49.96,1021.31,2053.10,1808.65,1967.44,2212.45,599.95,611.68,59.41,0000 0000 0000 0000 000000
2016-03-11 12:53:05,0.26,5.87,1.00,16.78,21.10,25.33,15.02,49.98,1021.22,2053.36,1806.61,1965.89,2210.74,600.07,611.69,59.46,0000 0000 0000 0000 000000
2016-03-11 12:58:06,0.33,5.88,0.67,16.74,21.08,25.26,14.96,49.96,1021.14,2053.50,1803.81,1963.91,2208.45,600.02,611.63,59.52,0000 0000 0000 0000 000000